When you browse on this site, cookies collect data to enhance your experience and personalize the content and advertising you see.
Visit our Privacy Policy to learn more. By continuing to use the site, you agree to this use of cookies and data.
  • In Portugal
  • List of Countries
  • For 7 days
  • Water Temperature
  • Satellite Maps
  • Weather Map
  • Weather Widgets
  • user-avatar
    Login

    Hourly Weather Mayrhofen

    Today, 16 December, Sunday

    Time Temperature Precipitation Wind Pressure Humidity
    00:00 -12°C° 0 mm 1 mps 611 mmHg 57%
    01:00 -13°C° 0 mm 2 mps 611 mmHg 52%
    02:00 -10°C° 0 mm 1 mps 611 mmHg 53%
    03:00 -9°C° 0 mm 1 mps 611 mmHg 54%
    04:00 -9°C° 0 mm 1 mps 612 mmHg 54%
    05:00 -8°C° 0.1 mm 1 mps 612 mmHg 59%
    06:00 -7°C° 0.1 mm 1 mps 612 mmHg 63%
    07:00 -7°C° 0.1 mm 1 mps 612 mmHg 68%
    08:00 -7°C° 0.2 mm 2 mps 612 mmHg 69%
    09:00 -6°C° 0.2 mm 2 mps 612 mmHg 71%
    10:00 -5°C° 0.2 mm 2 mps 613 mmHg 73%
    11:00 -2°C° 0.1 mm 1 mps 613 mmHg 74%
    12:00 -1°C° 0.1 mm 1 mps 613 mmHg 75%
    13:00 0°C° 0.1 mm 1 mps 613 mmHg 76%
    14:00 -1°C° 0.1 mm 1 mps 613 mmHg 78%
    15:00 -2°C° 0.1 mm 1 mps 613 mmHg 81%
    16:00 -2°C° 0.1 mm 1 mps 613 mmHg 84%
    17:00 -3°C° 0.3 mm 1 mps 613 mmHg 85%
    18:00 -3°C° 0.3 mm 1 mps 613 mmHg 87%
    19:00 -4°C° 0.3 mm 0 mps 613 mmHg 88%
    20:00 -3°C° 0.4 mm 1 mps 613 mmHg 89%
    21:00 -4°C° 0.4 mm 1 mps 613 mmHg 90%
    22:00 -4°C° 0.4 mm 1 mps 613 mmHg 91%
    23:00 -4°C° 0.2 mm 1 mps 613 mmHg 91%

    Tomorrow, 17 December, Monday

    Time Temperature Precipitation Wind Pressure Humidity
    00:00 -4°C° 0.2 mm 1 mps 613 mmHg 92%
    01:00 -4°C° 0.2 mm 1 mps 613 mmHg 92%
    02:00 -4°C° 0 mm 1 mps 613 mmHg 92%
    03:00 -4°C° 0 mm 1 mps 613 mmHg 92%
    04:00 -6°C° 0 mm 1 mps 613 mmHg 92%
    05:00 -6°C° 0 mm 1 mps 613 mmHg 91%
    06:00 -6°C° 0 mm 1 mps 613 mmHg 91%
    07:00 -8°C° 0 mm 2 mps 613 mmHg 91%
    08:00 -7°C° 0 mm 2 mps 614 mmHg 89%
    09:00 -7°C° 0 mm 2 mps 615 mmHg 88%
    10:00 -6°C° 0 mm 2 mps 615 mmHg 87%
    11:00 -5°C° 0 mm 2 mps 616 mmHg 85%
    12:00 -4°C° 0 mm 2 mps 616 mmHg 83%
    13:00 -3°C° 0 mm 2 mps 617 mmHg 81%
    14:00 -4°C° 0 mm 2 mps 617 mmHg 84%
    15:00 -5°C° 0 mm 2 mps 617 mmHg 86%
    16:00 -6°C° 0 mm 2 mps 617 mmHg 88%
    17:00 -7°C° 0 mm 2 mps 617 mmHg 87%
    18:00 -8°C° 0 mm 2 mps 618 mmHg 86%
    19:00 -8°C° 0 mm 2 mps 618 mmHg 85%
    20:00 -8°C° 0 mm 2 mps 618 mmHg 84%
    21:00 -9°C° 0 mm 2 mps 619 mmHg 84%
    22:00 -9°C° 0 mm 2 mps 619 mmHg 83%
    23:00 -9°C° 0 mm 2 mps 619 mmHg 84%

    Day after tomorrow, 18 December, Tuesday

    Time Temperature Precipitation Wind Pressure Humidity
    00:00 -9°C° 0 mm 2 mps 619 mmHg 85%
    01:00 -10°C° 0 mm 2 mps 619 mmHg 86%
    02:00 -9°C° 0 mm 1 mps 619 mmHg 85%
    03:00 -9°C° 0 mm 1 mps 619 mmHg 84%
    04:00 -9°C° 0 mm 1 mps 619 mmHg 83%
    05:00 -9°C° 0 mm 1 mps 619 mmHg 78%
    06:00 -9°C° 0 mm 1 mps 619 mmHg 73%
    07:00 -9°C° 0 mm 1 mps 619 mmHg 68%
    08:00 -8°C° 0 mm 1 mps 619 mmHg 67%
    09:00 -6°C° 0 mm 1 mps 620 mmHg 66%
    10:00 -4°C° 0 mm 1 mps 620 mmHg 65%
    11:00 -3°C° 0 mm 1 mps 620 mmHg 66%
    12:00 -1°C° 0 mm 1 mps 620 mmHg 67%
    13:00 -2°C° 0 mm 2 mps 620 mmHg 67%
    14:00 -3°C° 0 mm 2 mps 620 mmHg 68%
    15:00 -4°C° 0 mm 2 mps 619 mmHg 69%
    16:00 -5°C° 0 mm 2 mps 618 mmHg 70%
    17:00 -6°C° 0 mm 2 mps 618 mmHg 67%
    18:00 -7°C° 0 mm 2 mps 617 mmHg 64%
    19:00 -8°C° 0 mm 2 mps 617 mmHg 60%
    20:00 -8°C° 0 mm 2 mps 617 mmHg 58%
    21:00 -8°C° 0 mm 2 mps 617 mmHg 56%
    22:00 -8°C° 0 mm 2 mps 617 mmHg 55%
    23:00 -8°C° 0 mm 2 mps 616 mmHg 53%

    19 December, Wednesday

    Time Temperature Precipitation Wind Pressure Humidity
    00:00 -8°C° 0 mm 2 mps 616 mmHg 52%
    01:00 -7°C° 0 mm 2 mps 616 mmHg 51%
    02:00 -7°C° 0 mm 2 mps 616 mmHg 50%
    03:00 -7°C° 0 mm 2 mps 616 mmHg 49%
    04:00 -7°C° 0 mm 2 mps 615 mmHg 48%
    05:00 -6°C° 0 mm 2 mps 615 mmHg 48%
    06:00 -6°C° 0 mm 2 mps 615 mmHg 47%
    07:00 -6°C° 0 mm 2 mps 615 mmHg 47%
    08:00 -5°C° 0 mm 2 mps 616 mmHg 50%
    09:00 -2°C° 0 mm 1 mps 616 mmHg 53%
    10:00 -1°C° 0 mm 1 mps 617 mmHg 56%
    11:00 0°C° 0 mm 1 mps 617 mmHg 59%
    12:00 +1°C° 0 mm 1 mps 617 mmHg 62%
    13:00 +1°C° 0 mm 1 mps 616 mmHg 65%
    14:00 0°C° 0 mm 1 mps 616 mmHg 66%
    15:00 -3°C° 0 mm 2 mps 615 mmHg 67%
    16:00 -4°C° 0 mm 2 mps 614 mmHg 68%
    17:00 -5°C° 0 mm 2 mps 614 mmHg 69%
    18:00 -6°C° 0 mm 2 mps 614 mmHg 69%
    19:00 -8°C° 0 mm 3 mps 613 mmHg 70%
    20:00 -8°C° 0 mm 3 mps 613 mmHg 72%
    21:00 -8°C° 0 mm 3 mps 614 mmHg 75%
    22:00 -8°C° 0 mm 3 mps 614 mmHg 77%
    23:00 -7°C° 0 mm 2 mps 614 mmHg 80%

    20 December, Thursday

    Time Temperature Precipitation Wind Pressure Humidity
    00:00 -7°C° 0 mm 2 mps 614 mmHg 83%
    01:00 -7°C° 0 mm 2 mps 614 mmHg 85%
    02:00 -6°C° 0.3 mm 2 mps 614 mmHg 87%
    03:00 -4°C° 0.3 mm 1 mps 614 mmHg 89%
    04:00 -4°C° 0.3 mm 1 mps 614 mmHg 91%
    05:00 -4°C° 0.4 mm 1 mps 615 mmHg 92%
    06:00 -4°C° 0.4 mm 1 mps 615 mmHg 92%
    07:00 -4°C° 0.4 mm 1 mps 615 mmHg 93%
    08:00 -3°C° 0.6 mm 1 mps 615 mmHg 93%
    09:00 -3°C° 0.6 mm 1 mps 616 mmHg 92%
    10:00 -2°C° 0.6 mm 1 mps 616 mmHg 92%
    11:00 -2°C° 0.4 mm 1 mps 616 mmHg 92%
    12:00 -1°C° 0.4 mm 1 mps 616 mmHg 91%
    13:00 -1°C° 0.4 mm 1 mps 616 mmHg 91%
    14:00 -1°C° 0.2 mm 1 mps 616 mmHg 92%
    15:00 -2°C° 0.2 mm 1 mps 617 mmHg 93%
    16:00 -2°C° 0.2 mm 1 mps 617 mmHg 94%
    17:00 -4°C° 0.1 mm 2 mps 617 mmHg 94%
    18:00 -5°C° 0.1 mm 2 mps 617 mmHg 94%
    19:00 -6°C° 0.1 mm 2 mps 617 mmHg 94%
    20:00 -6°C° 0.1 mm 2 mps 617 mmHg 94%
    21:00 -7°C° 0.1 mm 2 mps 617 mmHg 94%
    22:00 -7°C° 0.1 mm 2 mps 617 mmHg 93%
    23:00 -6°C° 0 mm 1 mps 617 mmHg 93%

    21 December, Friday

    Time Temperature Precipitation Wind Pressure Humidity
    00:00 -7°C° 0 mm 1 mps 617 mmHg 92%
    01:00 -7°C° 0 mm 1 mps 617 mmHg 92%
    02:00 -8°C° 0 mm 1 mps 617 mmHg 90%
    03:00 -8°C° 0 mm 1 mps 617 mmHg 89%
    04:00 -9°C° 0 mm 1 mps 617 mmHg 88%
    05:00 -9°C° 0 mm 1 mps 617 mmHg 86%
    06:00 -9°C° 0 mm 1 mps 617 mmHg 84%
    07:00 -9°C° 0 mm 1 mps 617 mmHg 82%
    08:00 -8°C° 0 mm 1 mps 617 mmHg 79%
    09:00 -7°C° 0 mm 1 mps 618 mmHg 76%
    10:00 -4°C° 0 mm 1 mps 618 mmHg 73%
    11:00 -3°C° 0 mm 1 mps 618 mmHg 73%
    12:00 -3°C° 0 mm 2 mps 618 mmHg 72%
    13:00 -2°C° 0 mm 2 mps 618 mmHg 72%
    14:00 -2°C° 0 mm 2 mps 618 mmHg 73%
    15:00 -3°C° 0 mm 2 mps 617 mmHg 75%
    16:00 -4°C° 0 mm 2 mps 617 mmHg 76%
    17:00 -4°C° 0.1 mm 2 mps 617 mmHg 77%
    18:00 -4°C° 0.1 mm 2 mps 617 mmHg 77%
    19:00 -4°C° 0.1 mm 2 mps 617 mmHg 77%
    20:00 -3°C° 0.6 mm 2 mps 617 mmHg 80%
    21:00 -3°C° 0.6 mm 2 mps 618 mmHg 82%
    22:00 -1°C° 0.6 mm 1 mps 618 mmHg 84%
    23:00 -1°C° 0.2 mm 1 mps 618 mmHg 85%
    Show more